Flag for Austria Weather past 2 weeks in Enns, Upper Austria, Austria

Now
60 °F

Light rain. Partly sunny.


Feels Like: 60 °F
Forecast: 54 / 78 °F
Wind: N/A

Location: Linz / Hoersching-Flughafen

Current Time: Jul 23, 2014 at 6:46:26 AM

Latest Report: Jul 23, 2014 at 6:00 AM


Visibility: 0 mi

Pressure: 29.96 "Hg

Humidity: 98%

Dew point: 60 °F

Location of EnnsLocation

Historic Weather in Enns — Graph

°F

Enns temperature yesterday

Maximum temperature yesterday: 68 °F (at 6:00 PM)
Minimum temperature yesterday: 62 °F (at 1:00 AM)
Average temperature yesterday: 64 °F

Past Weeks' High & Low Weather Summary

 TemperatureHumidityPressure
High95 °F (Jul 20, 5:00 PM)100% (Jul 23, 3:00 AM)30.16 "Hg (Jul 23, 3:00 AM)
Low51 °F (Jul 10, 2:00 AM)24% (Jul 20, 5:00 PM)29.62 "Hg (Jul 8, 3:00 PM)
Average67 °F73%29.92 "Hg
* Reported Jul 8 5:00 AM — Jul 23 5:00 AM, Enns, Weather by CustomWeather, © 2014

Note: Actual official high and low records may vary slightly from our data, if they occured in-between our weather recording intervals... More about our weather records

Advertising

Enns weather history for previous 24 hours

 ConditionsComfort  
Time TempWeatherWind HumidityBarometerVisibility
5:00 AM
Jul 23
60 °FLight snow. Low clouds.N/A100%29.96 "Hg0 mi
3:00 AM61 °FLight snow. Passing clouds.N/A100%29.94 "Hg0 mi
2:00 AM64 °FMild.N/A97%29.94 "Hg3 mi
6:00 PM
Jul 22
68 °FOvercast.N/A91%29.87 "Hg31 mi
5:00 PM67 °FDrizzle. Low clouds.N/A89%29.86 "Hg22 mi
4:00 PM67 °FLight rain. Low clouds.N/A88%29.87 "Hg9 mi
3:00 PM66 °FLight rain. Low clouds.N/A90%29.87 "Hg10 mi
2:00 PM65 °FHeavy rain. Low clouds.3 mph93%29.88 "Hg8 mi
1:00 PM64 °FLight rain. Low clouds.N/A90%29.88 "Hg17 mi
12:00 PM64 °FLight rain. Low clouds.N/A92%29.87 "Hg9 mi
11:00 AM64 °FLow clouds.3 mph92%29.86 "Hg16 mi
10:00 AM63 °FLow clouds.5 mph92%29.85 "Hg31 mi
9:00 AM62 °FLight rain. Low clouds.5 mph94%29.85 "Hg7 mi
8:00 AM62 °FHeavy rain. Low clouds.N/A96%29.83 "Hg3 mi
7:00 AM62 °FHeavy rain. Low clouds.N/A96%29.84 "Hg2 mi
6:00 AM62 °FHeavy rain. Low clouds.N/A96%29.83 "Hg4 mi
Weather by CustomWeather, © 2014

See weather overviewHow to use our weather pages